Regional Weather Roundup
Issued by NWS Kansas City/Pleasant Hill, MO

Home | Current Version | Previous Version | Graphics & Text | Print | Product List | Glossary Off
Versions: 1 2 3 4 5 6 7 8 9 10 11 12 13 14 15 16 17 18 19 20 21 22 23 24 25 26 27 28 29 30 31 32 33 34 35 36 37 38 39 40 41 42 43 44 45 46 47 48 49 50

987
ASUS43 KEAX 042210
RWREAX

WEATHER ROUNDUP FOR EASTERN KANSAS AND NORTHWEST MISSOURI
NATIONAL WEATHER SERVICE KANSAS CITY/PLEASANT HILL MO
400 PM CST SUN DEC 04 2016

KSZ040-057-103>105-MOZ028-029-037-043-042300-
...KANSAS CITY METROPOLITAN AREA...

CITY           SKY/WX    TMP DP  RH WIND       PRES   REMARKS
K.C. INTL      MOCLDY    42  35  76 SW8       29.97S
K.C. DOWNTOWN  PTCLDY    45  37  73 W9        29.98S
LEES SUMMIT    CLEAR     45  36  70 SW10      29.98R
OLATHE - IXD   PTCLDY    42  36  79 W8        29.99S
OLATHE - OJC   PTCLDY    42  36  79 W8        29.98S
LAWRENCE       CLOUDY    40  36  86 SW8       30.00S WCI  34

$$

MOZ001>008-011>017-020>025-030>033-038>040-044>046-053-054-042300-
...NORTHERN AND CENTRAL MISSOURI...

CITY           SKY/WX    TMP DP  RH WIND       PRES   REMARKS
ST. JOSEPH     MOCLDY    39  35  86 SW9       29.97S WCI  33
MOSBY          PTCLDY    45  36  70 SW6       29.98R
WARRENSBURG    CLEAR     45  36  70 SW7       29.98S
WHITEMAN AFB   PTCLDY    44  40  86 W7        29.97S
CLINTON        MOCLDY    45  37  76 SW8       30.01S
SEDALIA        PTCLDY    44  37  76 W7        29.99S
WARSAW         NOT AVBL
CHILLICOTHE      N/A     42  36  79 W5        29.96S
KIRKSVILLE     CLOUDY    35  33  92 W12       29.94S WCI  27

$$

MOZ041-047>049-056>058-063>065-088>090-097-042300-
...EASTERN AND SOUTHERN MISSOURI...

CITY           SKY/WX    TMP DP  RH WIND       PRES   REMARKS
ST. LOUIS INTL CLOUDY    42  35  76 W12       29.96R
SPIRIT OF STL  CLOUDY    41  38  89 W8        29.97R
COLUMBIA       CLOUDY    40  37  89 W7        29.97S
JEFFERSON CITY CLOUDY    42  37  82 NW8       29.99R
ROLLA          CLOUDY    41  38  89 W7        29.96R
OSAGE BEACH    CLOUDY    43  38  82 W7        30.00R
SPRINGFIELD    CLOUDY    45  38  76 NW8       30.00S
BRANSON        CLOUDY    45  39  81 NW6       30.00F
JOPLIN         CLOUDY    46  37  71 W10       30.04R
WEST PLAINS    CLOUDY    44  41  89 NW5       29.98R

$$

IAZ060-094-KSZ022-034>040-054-083-096-NEZ052-066-093-042300-
...KANSAS...SOUTHEAST NEBRASKA AND IOWA...

CITY           SKY/WX    TMP DP  RH WIND       PRES   REMARKS
TOPEKA         MOCLDY    39  34  82 SW6       30.00R WCI  35
MANHATTAN      CLEAR     46  38  73 SW8       29.98S
EMPORIA        CLEAR     45  35  68 W6        30.00S
CHANUTE        PTCLDY    48  38  68 SW7       30.02F
WICHITA        SUNNY     51  34  52 SW6       30.00F
OMAHA          CLEAR     41  32  70 S6        29.90S
LINCOLN        CLEAR     37  32  82 SW5       29.93S WCI  33
FALLS CITY     CLEAR     43  36  76 SW10      29.94S
LAMONI         CLOUDY    37  34  89 W9        29.92S WCI  30
DES MOINES     CLOUDY    38  34  85 W13       29.91R WCI  30

$$





USA.gov is the U.S. government's official web portal to all federal, state and local government web resources and services.